Find Starlink 38253

NORAD ID: 100302 Int'l Des: 2026-184 Owner: SPXS Country: US Constellation: starlink operational

現在のビュー

3D地球を読み込み中...

About Starlink 38253

Starlink 38253 (NORAD 100302) is a starlink constellation satellite launched Aug 12, 2026 by SPXS of US. with a mass of 575.00 kg.

次回通過

Passes for default location (London). Set your location on the main map for personalized predictions.

高度履歴

Loading altitude history...

軌道要素

1 A0302U 26184B 26262.18353481 .00006745 00000-0 21104-3 0 9990
2 A0302 97.2841 127.2457 0002141 96.2070 263.9416 15.33446022 7152
Epoch: Sep 19, 2026 • Age: 36 hours

現在のステータス

高度 467.5 km
遠地点 / 近地点 N/A
速度 7.63 km/s
衛星直下点 12.74°N, 119.71°W
打ち上げ日 Aug 12, 2026
運用期間 0.1 years
タイプ internet

技術仕様

分類 Payload
質量 575.00 kg
乾燥質量 530.00 kg
長さ 0.30 m
スパン 29.00 m
形状 ? Box + pan
製造者 SPXS
バスタイプ Starlink V2MO
フェーズステータス In Orbit
所有者/国 SPXS/US

Most Searched